EW4169 Weather Reports


time (UTC)temp
C
wind
direction
speed
KPH
gust
KPH
rain 1hr
cm
rain 24hr
cm
rain mn
cm
humidity
%
barometer
mb
20260509064549 7 322 0.0 0.0 0.00 0.03 0.00 93 1010.1
20260509063032 7 321 0.0 0.0 0.00 0.03 0.00 93 1010.4
20260509061507 7 321 0.0 1.6 0.00 0.03 0.00 93 1010.7
20260509060016 8 321 3.2 3.2 0.00 0.03 0.00 92 1011.0
20260509054559 8 336 3.2 4.8 0.00 0.03 0.00 91 1011.0
20260509053033 8 82 0.0 3.2 0.00 0.03 0.00 89 1011.1
20260509051604 8 75 3.2 4.8 0.00 0.03 0.00 90 1011.4
20260509051506 8 75 3.2 4.8 0.00 0.03 0.00 90 1011.4
20260509050040 8 285 1.6 3.2 0.00 0.03 0.00 90 1011.8
20260509044533 8 285 0.0 0.0 0.00 0.03 0.00 88 1011.7
20260509043018 8 285 0.0 0.0 0.00 0.03 0.00 88 1011.6
20260509041546 8 285 0.0 0.0 0.00 0.03 0.00 87 1011.5
20260509040011 9 285 0.0 4.8 0.00 0.03 0.03 83 1011.8
20260509034520 8 276 1.6 4.8 0.00 0.03 0.03 86 1011.8
20260509033042 8 239 0.0 3.2 0.00 0.03 0.03 86 1012.0
20260509031528 8 107 0.0 1.6 0.00 0.03 0.03 89 1011.8
20260509030007 8 107 0.0 4.8 0.00 0.03 0.03 90 1011.7
20260509024528 8 107 0.0 4.8 0.00 0.03 0.03 89 1011.7
20260509023008 8 277 0.0 4.8 0.00 0.03 0.03 87 1011.8
20260509021549 8 278 0.0 4.8 0.00 0.03 0.03 85 1011.9
20260509020016 9 288 0.0 4.8 0.00 0.05 0.03 82 1011.7
20260509014555 10 97 0.0 8.0 0.00 0.05 0.03 80 1011.5
20260509013047 10 209 0.0 4.8 0.00 0.05 0.03 76 1011.6
20260509011513 11 225 4.8 17.7 0.00 0.05 0.03 74 1011.7
20260509010031 11 266 3.2 9.7 0.00 0.05 0.03 73 1011.1
20260509004532 11 275 3.2 11.3 0.00 0.05 0.03 72 1010.7
20260509003042 11 257 6.4 12.9 0.00 0.05 0.03 70 1010.9
20260509001520 11 230 6.4 17.7 0.00 0.05 0.03 68 1011.0
20260509000052 12 222 11.3 19.3 0.00 0.05 0.03 67 1010.9
20260508234532 12 252 11.3 19.3 0.00 0.05 0.03 68 1010.8
20260508233018 12 253 12.9 27.4 0.00 0.05 0.03 68 1010.7
20260508231540 12 204 11.3 24.1 0.00 0.05 0.03 68 1010.7
20260508230033 12 220 8.0 24.1 0.00 0.05 0.03 67 1010.5
20260508224545 12 195 9.7 24.1 0.00 0.05 0.03 68 1010.4
20260508223040 12 205 12.9 29.0 0.00 0.05 0.03 68 1010.3
20260508221506 12 271 9.7 22.5 0.00 0.05 0.03 71 1010.3
20260508220026 12 214 8.0 20.9 0.00 0.05 0.03 71 1010.7
20260508214508 12 237 11.3 17.7 0.00 0.05 0.03 75 1010.7
20260508213032 11 259 8.0 14.5 0.00 0.05 0.03 77 1010.6
20260508211554 11 248 6.4 14.5 0.03 0.05 0.03 77 1010.5
20260508210045 11 274 9.7 16.1 0.03 0.05 0.03 77 1010.6
20260508204557 10 266 6.4 20.9 0.03 0.05 0.03 78 1010.8
20260508203040 11 262 9.7 29.0 0.03 0.05 0.03 75 1011.2
20260508201558 12 251 17.7 32.2 0.00 0.03 0.00 63 1011.0
20260508200036 14 231 16.1 30.6 0.00 0.03 0.00 52 1010.5
20260508194600 14 204 9.7 22.5 0.00 0.03 0.00 52 1010.4
20260508194503 14 164 11.3 22.5 0.00 0.03 0.00 51 1010.4
20260508193026 14 254 12.9 29.0 0.00 0.03 0.00 53 1010.5
20260508191547 13 283 3.2 8.0 0.00 0.03 0.00 59 1010.6
20260508190040 13 322 8.0 16.1 0.00 0.03 0.00 59 1010.5
20260508184522 13 326 6.4 19.3 0.00 0.03 0.00 58 1010.4
20260508183048 13 296 16.1 30.6 0.00 0.03 0.00 59 1010.7
20260508181534 14 224 4.8 27.4 0.00 0.03 0.00 52 1010.4
20260508180050 14 259 14.5 25.7 0.00 0.03 0.00 51 1011.0
20260508174516 14 196 11.3 22.5 0.00 0.03 0.00 53 1011.2
20260508173053 13 261 9.7 27.4 0.00 0.03 0.00 55 1011.3
20260508171515 12 236 8.0 24.1 0.00 0.03 0.00 60 1011.7
20260508170040 12 279 12.9 22.5 0.00 0.03 0.00 54 1011.8
20260508164520 13 278 11.3 19.3 0.00 0.03 0.00 51 1011.5
20260508163058 13 278 11.3 17.7 0.00 0.03 0.00 51 1011.7
20260508161538 13 231 8.0 20.9 0.00 0.03 0.00 55 1011.6
20260508160050 13 243 8.0 30.6 0.00 0.03 0.00 53 1011.7
20260508154513 12 266 16.1 38.6 0.00 0.03 0.00 54 1011.9
20260508153048 13 278 8.0 27.4 0.00 0.03 0.00 56 1011.8
20260508151513 13 258 12.9 32.2 0.00 0.03 0.00 56 1011.7
20260508150059 12 252 19.3 30.6 0.00 0.03 0.00 54 1011.6
20260508144540 12 187 16.1 30.6 0.00 0.03 0.00 55 1011.5
20260508143108 12 219 16.1 32.2 0.00 0.03 0.00 54 1011.8
20260508141534 12 229 9.7 30.6 0.00 0.03 0.00 57 1011.9
20260508140009 11 228 8.0 22.5 0.00 0.03 0.00 60 1011.9
20260508134536 11 252 8.0 16.1 0.00 0.03 0.00 61 1012.0
20260508133014 10 112 6.4 17.7 0.00 0.03 0.00 65 1012.2
20260508131547 9 217 6.4 12.9 0.00 0.03 0.00 68 1012.4
20260508130020 8 247 3.2 9.7 0.00 0.03 0.00 73 1012.5
20260508124542 7 213 3.2 8.0 0.00 0.03 0.00 77 1012.5
20260508123020 5 225 1.6 6.4 0.00 0.03 0.00 84 1012.6
20260508121546 3 215 1.6 3.2 0.00 0.03 0.00 88 1012.6
20260508120024 3 127 0.0 0.0 0.00 0.03 0.00 94 1012.5
20260508114547 2 127 0.0 0.0 0.00 0.03 0.00 95 1012.6
20260508113030 2 127 0.0 0.0 0.00 0.03 0.00 95 1012.7
20260508111545 1 127 0.0 0.0 0.00 0.03 0.00 95 1012.7
20260508110041 0 127 0.0 0.0 0.00 0.03 0.00 95 1012.7
20260508104554 0 127 0.0 0.0 0.00 0.03 0.00 95 1012.5
20260508103023 0 127 0.0 0.0 0.00 0.03 0.00 94 1012.3
20260508101616 0 127 0.0 0.0 0.00 0.03 0.00 95 1012.3
20260508101502 0 127 0.0 0.0 0.00 0.03 0.00 95 1012.3
20260508100040 0 221 0.0 0.0 0.00 0.03 0.00 94 1012.2
20260508094511 0 221 0.0 0.0 0.00 0.03 0.00 93 1012.0
20260508093044 0 221 0.0 0.0 0.00 0.03 0.00 93 1012.0
20260508091610 0 221 0.0 0.0 0.00 0.03 0.00 93 1011.9
20260508091502 0 221 0.0 0.0 0.00 0.03 0.00 93 1011.9
20260508090056 0 221 0.0 0.0 0.00 0.03 0.00 92 1012.0
20260508084600 0 221 0.0 0.0 0.00 0.03 0.00 91 1011.8
20260508084508 0 221 0.0 0.0 0.00 0.03 0.00 91 1011.8
20260508083052 0 221 0.0 0.0 0.00 0.03 0.00 91 1011.8
20260508081538 0 221 0.0 0.0 0.00 0.03 0.00 89 1011.7
20260508080017 1 221 0.0 0.0 0.00 0.03 0.00 88 1011.9
20260508074541 1 221 0.0 0.0 0.00 0.03 0.00 88 1011.8
20260508073012 2 221 0.0 0.0 0.00 0.03 0.00 86 1011.8
20260508071546 2 221 0.0 1.6 0.00 0.03 0.00 83 1011.7
20260508070010 3 221 0.0 3.2 0.00 0.03 0.00 83 1011.9